Regional Weather Roundup
Issued by NWS Bismarck, ND

Home | Current Version | Previous Version | Text Only | Print | Product List | Glossary On
Versions: 1 2 3 4 5 6 7 8 9 10 11 12 13 14 15 16 17 18 19 20 21 22 23 24 25 26 27 28 29 30 31 32 33 34 35 36 37 38 39 40 41 42 43 44 45 46 47 48 49 50
000
ASUS43 KBIS 181602
RWRBIS

NWR BROADCAST TEXT
NATIONAL WEATHER SERVICE BISMARCK ND
1000 AM CST WED JAN 18 2017

NOTE: "FAIR" INDICATES FEW OR NO CLOUDS BELOW 12,000 FEET WITH NO
SIGNIFICANT WEATHER AND/OR OBSTRUCTIONS TO VISIBILITY.


CITY           SKY/WX    TMP DP  RH WIND       PRES   REMARKS
WILLISTON      FAIR      28  20  71 SW9       29.64F WCI  19
MINOT          FAIR      36  27  69 SW17      29.66R
MINOT AFB      NOT AVBL
BISMARCK       FAIR      22  15  75 CALM      29.76S
DICKINSON      FAIR      34  21  59 SW8       29.69S
GARRISON         N/A     28  22  78 SW3       29.70S
HETTINGER ARPT FAIR      30  20  66 SW3       29.76S
JAMESTOWN      FAIR      31  23  72 SW7       29.73S
CARRINGTON     FAIR      34  27  75 SW8       29.73S
HAZEN            N/A    N/A N/A N/A W3        29.73F
MANDAN         FAIR      30  23  74 SW7       29.75S
STANLEY        FAIR      32  27  80 SW6       29.68S
$$

CITY           SKY/WX    TMP DP  RH WIND       PRES   REMARKS
GRAND FORKS    FAIR      24  18  77 SE6       29.72R WCI  17
GRAND FORKS AF FAIR      30  21  69 CALM      29.71S
DEVILS LAKE    FAIR      30  24  78 SW10      29.69S
FARGO          FAIR      24  18  77 S9        29.77S WCI  14
GRAFTON        FAIR      23  19  86 S12       29.72R WCI  12
GWINNER        FAIR      27  21  80 SW16      29.77F WCI  14
$$

CITY           SKY/WX    TMP DP  RH WIND       PRES   REMARKS
ABERDEEN       FAIR      20  13  74 S9        29.82S WCI   9
MOBRIDGE       FAIR      20  13  74 E7        29.75F WCI  11
BUFFALO          N/A     38  21  50 W7        29.68S
RAPID CITY     FAIR      28  19  69 CALM      29.76F
GLASGOW        FAIR      31  23  72 SE14      29.56F
SIDNEY         FAIR      27  21  78 SW18      29.67F WCI  14
WOLF POINT     FAIR      20  15  81 NE5       29.62S WCI  13
GLENDIVE       FAIR      26  20  77 VRB6      29.71S WCI  19
MILES CITY     FAIR      21  14  74 CALM      29.71F
BAKER          FAIR      27  18  69 CALM      29.72F
$$

CITY           SKY/WX    TMP DP  RH WIND       PRES   REMARKS
BILLINGS       FAIR      36  19  50 SW24G31   29.71R
GREAT FALLS    FAIR      40  25  55 SW24      29.58R
$$




USA.gov is the U.S. government's official web portal to all federal, state and local government web resources and services.